Regional Weather Roundup
Issued by NWS Bismarck, ND

Home | Current Version | Previous Version | Text Only | Print | Product List | Glossary On
Versions: 1 2 3 4 5 6 7 8 9 10 11 12 13 14 15 16 17 18 19 20 21 22 23 24 25 26 27 28 29 30 31 32 33 34 35 36 37 38 39 40 41 42 43 44 45 46 47 48 49 50
000
ASUS43 KBIS 011910
RWRBIS

NWR BROADCAST TEXT
NATIONAL WEATHER SERVICE BISMARCK ND
200 PM CDT MON SEP 01 2014

NOTE: "FAIR" INDICATES FEW OR NO CLOUDS BELOW 12,000 FEET WITH NO
SIGNIFICANT WEATHER AND/OR OBSTRUCTIONS TO VISIBILITY.


CITY           SKY/WX    TMP DP  RH WIND       PRES   REMARKS
WILLISTON      PTSUNNY   71  42  35 W7        29.84S
MINOT          MOSUNNY   71  45  39 W15       29.79S
MINOT AFB      MOSUNNY   70  48  45 W14       29.78S
BISMARCK       SUNNY     73  51  46 NW13      29.82S
DICKINSON      MOSUNNY   68  47  46 NW10      29.86S
GARRISON         N/A     67  48  50 NW10G20   29.82S
HETTINGER ARPT MOSUNNY   70  47  43 NW12G25   29.89S
JAMESTOWN      MOSUNNY   72  56  57 W10       29.77S
BEACH            N/A     64  45  48 W13G21    29.90S
CARRINGTON     FAIR      70  57  64 W13       29.78S
CROSBY         FAIR      72  39  30 NW15      29.82S
HARVEY         FAIR      72  50  46 NW14      29.78S
HAZEN          FAIR      68  46  45 NW15G21   29.84S
LINTON         FAIR      70  55  60 W7        29.82S
MANDAN         FAIR      70  50  49 NW14      29.83S
OAKES            N/A     75  55  50 SW10      29.77S
RUGBY          FAIR      66  50  55 NW13G18   29.78S
STANLEY        FAIR      66  43  42 NW10G17   29.83S
TIOGA          FAIR      68  41  37 W9        29.86F
WATFORD CITY   MOCLDY    68  43  40 N7        29.83F
$$

CITY           SKY/WX    TMP DP  RH WIND       PRES   REMARKS
GRAND FORKS    PTSUNNY   72  55  56 W8        29.69F THUNDER
GRAND FORKS AF DRIZZLE   70  59  68 NW5       29.71S
DEVILS LAKE    CLOUDY    64  50  59 NW7       29.74S
FARGO          PTSUNNY   74  56  53 W7        29.73F
CANDO          FAIR      68  48  49 NW14      29.76S
CAVALIER       FAIR      72  54  53 W6        29.68F
GRAFTON        FAIR      73  50  43 NW6       29.69S
GWINNER        CLEAR     75  57  53 SW12      29.78S
LANGDON        FAIR      64  55  72 W12       29.73S
ROLLA          FAIR      66  50  55 W9        29.77S
WALHALLA       FAIR      72  50  46 NW9       29.69S
$$

CITY           SKY/WX    TMP DP  RH WIND       PRES   REMARKS
ABERDEEN       SUNNY     75  54  47 W8        29.80S
MOBRIDGE       SUNNY     74  54  49 NW7       29.80F
BUFFALO          N/A     68  45  43 NW12G17   29.85F
RAPID CITY     PTSUNNY   72  47  40 N12       29.92F
GLASGOW        SUNNY     68  48  48 SW7       29.87F
SIDNEY         MOSUNNY   70  48  46 W6        29.87S
WOLF POINT     MOSUNNY   71  48  43 SW12      29.85F
GLENDIVE       PTSUNNY   63  52  67 SW9       29.91S
MILES CITY     PTSUNNY   69  39  33 NW14G23   29.90F
BAKER          CLOUDY    65  48  54 W13       29.92F
$$

CITY           SKY/WX    TMP DP  RH WIND       PRES   REMARKS
BILLINGS       MOSUNNY   67  35  30 NW13      29.98S
GREAT FALLS    MOSUNNY   69  37  30 SW20      29.95F
REGINA         MOSUNNY   66  46  48 NW16      29.79S
ESTEVAN        PTSUNNY   66  45  45 W9        29.81S
$$




USA.gov is the U.S. government's official web portal to all federal, state and local government web resources and services.